Location: Grossmotten
(48.5500°N, 15.3833°E)
Time: 07:21:25
(UTC+00:00)

Cosmos 2322 Rocket - Pass Details

Date: 15 November 2019
Orbit: 832 x 851 km, 71.0° (Epoch: 08 December)

Event Time Altitude Azimuth Distance (km) Brightness Sun altitude
Exits shadow 03:47:23 13° 342° (NNW) 2,272 4.2 -22.8°
Maximum altitude 03:52:19 48° 55° (NE) 1,093 3.0 -22.0°
Drops below altitude 10° 03:57:47 10° 129° (SE) 2,466 5.4 -21.1°
Sets 04:00:19 0° 135° (SE) 3,400 6.1 -20.7°
